Weather History for KSTE - April, 2013

Change the Weather History Date:

Friday, April 19, 2013

  Actual Average Record
Temperature  
Mean Temperature 30 °F -  
Max Temperature 34 °F 58 °F 86 °F (1985)
Min Temperature 24 °F 37 °F 18 °F (1983)
Degree Days  
Heating Degree Days 36    
Moisture  
Dew Point 22 °F    
Average Humidity 76    
Maximum Humidity 94    
Minimum Humidity 55    
Precipitation  
Precipitation 0.02 in - - ()
Sea Level Pressure  
Sea Level Pressure 29.46 in    
Wind  
Wind Speed 14 mph (WNW)    
Max Wind Speed 20 mph    
Max Gust Speed 31 mph    
Visibility 8 miles    
Events Rain , Snow    
Averages and records for this station are not official NWS values.
T = Trace of Precipitation, MM = Missing Value Source: NWS Daily Summary

Daily Weather History Graph

Daily Weather History Graph

Search for Another Location

Airport or City:

Trip Planner

Search our weather history database for the weather conditions in past years. The results will help you decide how hot, cold, wet, or windy it might be!

Date:

Astronomy

Apr. 19, 2013 Rise Set
Actual Time 6:06 AM CDT 7:48 PM CDT
Civil Twilight 5:36 AM CDT 8:19 PM CDT
Nautical Twilight 4:58 AM CDT 8:56 PM CDT
Astronomical Twilight 4:18 AM CDT 9:37 PM CDT
Moon 1:18 PM CDT (4/19) 2:37 AM CDT (4/19)
Length of Visible Light 14h 42m
Length of Day
13h 41m
First Quarter, 62% of the Moon is Illuminated
Apr 19
First Quarter
Apr 25
Full
May 2
Last Quarter
May 9
New
May 17
First Quarter

Hourly Weather History & Observations

Time (CDT) Temp. Windchill Dew Point Humidity Pressure Visibility Wind Dir Wind Speed Gust Speed Precip Events Conditions
12:15 AM 35.6 °F 26.2 °F 33.8 °F 93% 29.25 in 10.0 mi SW 15.0 mph 24.2 mph N/A   Overcast
12:35 AM 35.1 °F 25.2 °F 32.5 °F 91% 29.25 in 10.0 mi SW 16.1 mph 21.9 mph N/A   Overcast
12:55 AM 34.2 °F 25.2 °F 31.8 °F 91% 29.25 in 10.0 mi SW 12.7 mph 20.7 mph N/A   Overcast
1:15 AM 33.8 °F 23.9 °F 31.5 °F 91% 29.24 in 10.0 mi SW 15.0 mph 23.0 mph N/A   Overcast
1:35 AM 33.1 °F 24.9 °F 31.5 °F 94% 29.24 in 10.0 mi SW 10.4 mph - N/A   Light Drizzle
2:15 AM 31.8 °F 21.8 °F 30.0 °F 93% 29.22 in 10.0 mi SW 13.8 mph 18.4 mph N/A Rain Light Freezing Rain
2:35 AM 31.1 °F 20.1 °F 29.7 °F 94% 29.22 in 10.0 mi SW 16.1 mph 19.6 mph N/A   Overcast
2:55 AM 31.1 °F 21.9 °F 29.3 °F 93% 29.22 in 5.0 mi SW 11.5 mph 20.7 mph N/A   Overcast
3:15 AM 30.9 °F 21.7 °F 29.3 °F 94% 29.22 in 7.0 mi SW 11.5 mph 20.7 mph N/A   Overcast
3:35 AM 30.9 °F 20.2 °F 28.9 °F 92% 29.22 in 7.0 mi WSW 15.0 mph 20.7 mph N/A   Overcast
3:55 AM 30.6 °F 20.7 °F 28.8 °F 93% 29.21 in 7.0 mi SW 12.7 mph 21.9 mph N/A   Overcast
4:15 AM 30.6 °F 20.7 °F 28.8 °F 93% 29.21 in 7.0 mi WSW 12.7 mph 18.4 mph N/A   Overcast
4:35 AM 30.2 °F 19.8 °F 28.4 °F 93% 29.21 in 5.0 mi WSW 13.8 mph 19.6 mph N/A   Overcast
4:55 AM 30.2 °F 19.8 °F 28.4 °F 93% 29.21 in 4.0 mi SW 13.8 mph - N/A Snow Light Snow
5:15 AM 30.0 °F 20.5 °F 28.4 °F 94% 29.21 in 3.0 mi WSW 11.5 mph 19.6 mph N/A Snow Light Snow
5:35 AM 30.0 °F 19.5 °F 28.2 °F 93% 29.21 in 4.0 mi WSW 13.8 mph 19.6 mph N/A Snow Light Snow
5:55 AM 30.0 °F 19.1 °F 27.3 °F 90% 29.21 in 10.0 mi WSW 15.0 mph 24.2 mph N/A   Overcast
6:15 AM 30.0 °F 20.0 °F 27.3 °F 90% 29.22 in 10.0 mi WSW 12.7 mph 24.2 mph N/A Snow Light Snow
6:35 AM 30.0 °F 19.1 °F 27.3 °F 90% 29.22 in 5.0 mi WSW 15.0 mph 21.9 mph N/A Snow Light Snow
6:55 AM 29.5 °F 18.8 °F 27.5 °F 92% 29.22 in 1.8 mi West 13.8 mph 23.0 mph N/A Snow Light Snow
7:15 AM 29.8 °F 18.9 °F 27.3 °F 90% 29.23 in 4.0 mi West 15.0 mph 20.7 mph N/A Snow Light Snow
7:35 AM 29.8 °F 19.3 °F 27.0 °F 89% 29.24 in 4.0 mi West 13.8 mph 20.7 mph N/A Snow Light Snow
7:55 AM 29.8 °F 20.3 °F 26.6 °F 88% 29.25 in 4.0 mi West 11.5 mph 21.9 mph N/A Snow Light Snow
8:15 AM 29.8 °F 19.8 °F 26.6 °F 88% 29.26 in 4.0 mi WNW 12.7 mph 19.6 mph N/A Snow Light Snow
8:35 AM 29.3 °F 19.1 °F 25.5 °F 86% 29.27 in 4.0 mi WNW 12.7 mph 27.6 mph N/A Snow Light Snow
8:55 AM 29.3 °F 18.2 °F 24.4 °F 82% 29.28 in 10.0 mi WNW 15.0 mph 26.5 mph N/A Snow Light Snow
9:15 AM 29.3 °F 17.7 °F 23.7 °F 80% 29.30 in 7.0 mi NW 16.1 mph 20.7 mph N/A Snow Light Snow
9:35 AM 29.7 °F 20.1 °F 22.6 °F 75% 29.31 in 10.0 mi WNW 11.5 mph 26.5 mph N/A Snow Light Snow
10:15 AM 29.8 °F 17.7 °F 22.8 °F 75% 29.33 in 10.0 mi WNW 18.4 mph 27.6 mph N/A   Overcast
10:35 AM 30.4 °F 18.0 °F 22.6 °F 73% 29.34 in 10.0 mi WNW 19.6 mph 26.5 mph N/A   Overcast
10:55 AM 30.6 °F 18.6 °F 20.7 °F 67% 29.37 in 10.0 mi WNW 18.4 mph 27.6 mph N/A   Overcast
11:15 AM 29.8 °F 20.9 °F 21.2 °F 70% 29.38 in 10.0 mi NW 10.4 mph 29.9 mph N/A   Overcast
11:35 AM 30.9 °F 21.2 °F 20.7 °F 66% 29.38 in 10.0 mi NW 12.7 mph 18.4 mph N/A   Overcast
11:55 AM 30.9 °F 21.2 °F 19.2 °F 62% 29.39 in 10.0 mi WNW 12.7 mph 25.3 mph N/A   Overcast
12:15 PM 28.9 °F 19.2 °F 23.4 °F 80% 29.41 in 2.5 mi WNW 11.5 mph 29.9 mph N/A Snow Light Snow
12:35 PM 28.8 °F 17.5 °F 22.3 °F 77% 29.42 in 2.0 mi WNW 15.0 mph 23.0 mph N/A Snow Light Snow
12:55 PM 28.4 °F 17.5 °F 23.0 °F 80% 29.43 in 2.0 mi West 13.8 mph 26.5 mph N/A Snow Light Snow
1:15 PM 31.6 °F 21.2 °F 23.2 °F 71% 29.43 in 7.0 mi WNW 15.0 mph 29.9 mph N/A   Overcast
1:35 PM 32.0 °F 20.1 °F 19.4 °F 60% 29.44 in 10.0 mi WNW 19.6 mph 26.5 mph N/A   Overcast
1:55 PM 31.5 °F 20.9 °F 16.9 °F 55% 29.46 in 5.0 mi WNW 15.0 mph 27.6 mph N/A   Haze
2:15 PM 31.5 °F 19.4 °F 20.3 °F 63% 29.48 in 10.0 mi WNW 19.6 mph 28.8 mph N/A   Overcast
2:35 PM 31.1 °F 21.4 °F 18.7 °F 60% 29.49 in 10.0 mi NW 12.7 mph 23.0 mph N/A   Overcast
2:55 PM 29.1 °F 17.1 °F 22.8 °F 77% 29.50 in 3.0 mi WNW 17.3 mph 26.5 mph N/A Snow Light Snow
3:15 PM 32.5 °F 21.9 °F 17.8 °F 55% 29.51 in 10.0 mi WNW 16.1 mph 28.8 mph N/A   Mostly Cloudy
3:35 PM 32.0 °F 20.5 °F 18.0 °F 56% 29.53 in 10.0 mi WNW 18.4 mph 27.6 mph N/A   Mostly Cloudy
3:55 PM 30.2 °F 20.8 °F 21.6 °F 70% 29.54 in 5.0 mi West 11.5 mph 20.7 mph N/A Snow Light Snow
4:15 PM 30.6 °F 19.0 °F 19.2 °F 63% 29.56 in 10.0 mi WNW 17.3 mph 26.5 mph N/A Snow Light Snow
4:35 PM 30.7 °F 20.4 °F 19.4 °F 63% 29.57 in 10.0 mi WNW 13.8 mph 24.2 mph N/A   Scattered Clouds
4:55 PM 27.7 °F 16.1 °F 22.8 °F 82% 29.60 in 1.0 mi NW 15.0 mph 29.9 mph N/A Snow Light Snow
5:15 PM 29.8 °F 20.9 °F 21.4 °F 71% 29.62 in 10.0 mi WNW 10.4 mph 20.7 mph N/A   Overcast
5:55 PM 30.2 °F 18.1 °F 17.6 °F 60% 29.64 in 10.0 mi NW 18.4 mph 31.1 mph N/A   Mostly Cloudy
6:15 PM 28.2 °F 17.2 °F 21.4 °F 76% 29.67 in 4.0 mi NNW 13.8 mph 28.8 mph N/A Snow Light Snow
6:35 PM 28.9 °F 18.2 °F 18.5 °F 65% 29.68 in 10.0 mi NW 13.8 mph 18.4 mph N/A   Mostly Cloudy
6:55 PM 28.9 °F 18.2 °F 18.1 °F 64% 29.69 in 10.0 mi NW 13.8 mph 19.6 mph N/A   Scattered Clouds
7:15 PM 28.4 °F 16.2 °F 16.7 °F 62% 29.71 in 10.0 mi WNW 17.3 mph 28.8 mph N/A   Scattered Clouds
7:35 PM 28.0 °F 17.5 °F 15.6 °F 60% 29.72 in 10.0 mi WNW 12.7 mph 19.6 mph N/A   Clear
7:55 PM 27.5 °F 15.4 °F 16.0 °F 62% 29.74 in 10.0 mi NW 16.1 mph 20.7 mph N/A   Clear
8:15 PM 27.3 °F 18.4 °F 15.8 °F 62% 29.75 in 10.0 mi WNW 9.2 mph - N/A   Clear
8:35 PM 27.3 °F 17.7 °F 14.9 °F 60% 29.77 in 10.0 mi NW 10.4 mph 17.3 mph N/A   Clear
8:55 PM 27.0 °F 16.7 °F 14.0 °F 58% 29.79 in 10.0 mi NNW 11.5 mph 23.0 mph N/A   Scattered Clouds
9:15 PM 26.6 °F 17.5 °F 14.0 °F 59% 29.81 in 10.0 mi NW 9.2 mph 17.3 mph N/A   Scattered Clouds
9:35 PM 26.4 °F 16.6 °F 14.7 °F 61% 29.82 in 10.0 mi WNW 10.4 mph 19.6 mph N/A   Mostly Cloudy
9:55 PM 25.9 °F 16.0 °F 16.0 °F 66% 29.83 in 10.0 mi NW 10.4 mph 17.3 mph N/A   Mostly Cloudy
10:15 PM 25.7 °F 14.0 °F 14.4 °F 62% 29.85 in 10.0 mi NW 13.8 mph 23.0 mph N/A   Overcast
10:35 PM 25.5 °F 14.9 °F 13.6 °F 61% 29.85 in 10.0 mi NW 11.5 mph 19.6 mph N/A   Scattered Clouds
10:55 PM 25.2 °F 17.3 °F 14.0 °F 63% 29.87 in 10.0 mi NW 6.9 mph 17.3 mph N/A   Scattered Clouds
11:15 PM 24.6 °F 16.7 °F 13.6 °F 63% 29.88 in 10.0 mi NW 6.9 mph 20.7 mph N/A   Scattered Clouds
11:35 PM 24.4 °F 14.9 °F 14.0 °F 65% 29.88 in 10.0 mi NW 9.2 mph 16.1 mph N/A   Scattered Clouds
11:55 PM 24.4 °F 15.6 °F 14.7 °F 67% 29.89 in 10.0 mi NW 8.1 mph - N/A   Mostly Cloudy